SCP
0 1 1 1 1 1 0 0 0 0 0 0 0 0 0 0 0 0 0 0 0 0 0 0 0 0 0 0 0 0 0 0 0 0 0 0 0 0 0 0 0 0 0
0 1 1 1 1 1 0 0 0 0 0 0 0 0 0 0 0 0 0 0 0 0 0 0 0 0 0 0 0 0 0 0 0 0 0 0 0 0 0 0 0 0 0
1 1 1 1 1 1 1 0 0 0 0 0 0 0 0 0 0 0 0 0 0 0 0 0 0 0 0 0 0 0 0 0 0 0 0 0 0 0 0 0 0 0 0
1 1 1 1 1 1 1 1 0 0 0 0 0 0 0 0 0 0 0 0 0 0 0 0 0 0 0 0 0 0 0 0 0 0 0 0 0 0 0 0 0 0 0
1 1 1 1 1 1 1 1 1 1 0 0 0 0 0 0 0 0 0 0 0 0 0 0 0 0 0 0 0 0 0 0 0 0 0 0 0 0 0 0 0 0 0
1 1 1 1 1 1 1 1 1 1 1 1 0 0 0 0 0 0 0 0 0 0 0 0 0 0 0 0 0 0 0 0 0 0 0 0 0 0 0 0 0 0 0
1 1 1 1 1 1 1 1 1 1 1 1 1 0 0 0 0 0 0 0 0 0 0 0 0 0 0 0 0 0 0 0 0 0 0 0 0 0 0 0 0 0 0
1 1 1 1 1 1 1 1 1 1 1 1 1 1 0 0 0 0 0 0 0 0 0 0 0 0 0 0 0 0 0 0 0 0 0 0 0 0 0 0 0 0 0
1 1 1 1 1 1 1 1 1 1 1 1 1 1 1 1 0 0 0 0 0 0 0 0 0 0 0 0 0 0 0 0 0 0 0 0 0 0 0 0 0 0 0
1 1 1 1 1 1 1 2 2 2 1 1 1 1 1 1 1 1 1 0 0 0 1 0 0 0 0 0 0 0 0 0 0 0 0 0 0 0 0 0 0 0 0
1 1 1 1 1 1 2 2 2 2 2 1 1 1 1 1 1 1 1 1 1 1 1 0 0 0 0 0 0 0 0 0 0 0 0 0 0 0 0 0 0 0 0
1 1 1 1 1 2 2 2 2 2 2 2 1 1 1 1 1 1 1 1 1 1 1 1 0 0 0 0 0 0 0 0 0 0 0 0 0 0 0 0 0 0 0
1 1 1 1 1 2 2 2 2 2 2 2 2 1 1 1 1 1 1 1 1 1 1 1 1 1 1 0 0 0 0 0 0 0 0 0 0 0 0 0 0 0 0
1 1 1 1 1 2 2 2 2 2 2 2 2 2 1 1 1 1 1 1 1 1 1 1 1 1 1 1 0 0 0 0 0 0 0 0 0 0 0 0 0 0 0
1 1 1 1 1 2 2 2 2 2 2 2 2 2 1 1 1 1 1 1 1 1 1 1 1 1 1 1 0 0 0 0 0 0 0 0 0 0 0 0 0 0 0
1 1 1 1 1 2 2 2 2 2 2 2 2 2 2 1 1 1 1 1 1 1 1 1 1 1 1 0 0 0 0 0 0 0 0 0 0 0 0 0 0 0 0
1 1 1 1 1 1 2 2 2 2 2 2 2 2 2 2 1 2 2 2 1 1 1 1 1 1 1 0 0 0 0 0 0 0 0 0 0 0 0 0 0 0 0
1 1 1 1 1 1 1 2 2 2 2 2 2 2 2 2 2 2 3 2 1 1 1 1 1 1 0 0 0 0 0 0 1 1 1 0 0 0 0 0 0 0 0
1 1 1 1 1 1 1 2 2 2 2 2 2 2 2 2 1 2 2 1 1 1 1 1 1 1 0 0 0 0 0 0 0 0 0 0 0 0 0 0 0 0 0
1 1 1 1 1 1 1 2 2 2 2 2 2 2 1 1 1 1 1 1 1 1 1 1 1 1 0 0 0 0 0 0 0 0 0 0 0 0 0 0 0 0 0
1 1 2 2 2 1 1 2 2 2 2 2 2 1 1 1 1 1 1 1 1 1 1 1 1 0 0 0 0 0 0 0 0 0 0 0 0 0 0 0 0 0 0
1 1 1 1 1 1 1 2 2 2 2 2 1 1 1 1 1 0 0 1 1 1 1 1 0 0 0 0 0 0 0 0 0 0 0 0 0 0 0 0 0 0 0
1 1 1 1 1 1 1 1 1 1 1 1 1 1 1 1 0 0 0 1 1 1 1 1 1 0 0 0 0 0 0 0 0 0 0 0 0 0 0 0 0 0 0
1 1 1 1 1 1 1 1 1 1 1 1 1 1 1 1 0 0 0 0 1 1 1 1 1 0 0 0 0 0 0 0 0 0 0 0 0 0 0 0 0 0 0
1 1 1 1 1 1 0 0 0 0 0 0 0 1 1 1 0 0 0 0 0 0 0 0 0 0 0 0 0 0 0 0 0 0 0 0 0 0 0 0 0 0 0
1 1 1 1 1 0 0 0 0 0 0 0 0 0 0 0 0 0 0 0 0 0 0 0 0 0 0 0 0 0 0 0 0 0 0 0 0 0 0 0 0 0 0
Wind_Speed
12 12 14 14 13 11 11 10 10 9 7 4 4 3 3 3 2 3 5 5 5 5 4 3 3 2 3 3 3 2 1 1 1 0 2 3 2 2 2 2 2 4 5
10 12 12 13 13 13 12 10 10 10 8 6 4 3 3 3 3 3 4 5 5 5 4 4 3 3 2 2 3 2 1 1 1 2 0 2 4 3 2 1 1 3 2
16 15 15 14 14 13 14 12 10 10 9 7 4 3 2 1 1 2 3 4 5 5 4 4 3 3 3 3 3 3 3 2 1 2 3 2 2 2 3 2 1 1 1
14 14 15 15 15 15 13 11 11 10 9 8 6 6 5 5 5 4 3 4 5 5 5 4 4 4 3 3 3 3 2 3 2 1 2 3 3 2 2 3 2 2 1
14 16 16 16 15 14 13 11 11 10 9 9 8 7 6 5 3 3 4 4 4 5 5 4 4 4 3 4 3 3 3 3 3 2 1 1 1 2 2 2 3 2 1
12 12 12 11 11 11 11 11 11 11 10 10 9 8 7 6 5 5 5 4 3 3 4 5 4 4 3 4 4 4 4 3 3 2 2 2 2 2 2 3 2 2 2
9 9 10 12 12 13 12 12 12 11 11 10 9 9 8 7 7 6 6 5 4 3 5 5 4 4 4 4 4 3 4 4 3 3 3 3 3 2 2 2 2 2 2
9 10 11 12 13 14 14 13 14 12 12 11 10 9 8 6 5 6 6 6 5 5 5 5 5 5 5 5 4 3 4 3 3 4 3 3 3 2 3 3 2 1 2
9 9 9 9 10 12 13 14 14 12 12 12 10 9 8 7 6 6 6 5 4 5 5 5 5 5 5 5 4 3 4 3 3 3 3 3 3 2 3 3 3 3 2
6 8 8 8 8 9 10 10 11 12 11 11 10 9 8 8 7 6 5 5 5 4 4 5 5 5 5 4 4 3 3 3 3 3 3 3 2 2 2 2 2 3 3
4 6 7 7 7 7 8 9 9 9 9 9 9 8 8 7 6 6 6 6 5 5 5 5 5 5 5 5 4 4 4 4 3 3 3 3 2 2 2 2 2 2 3
1 3 5 5 5 7 7 8 8 8 9 9 7 7 7 7 6 6 6 5 5 5 5 5 5 5 5 5 5 5 5 4 4 4 3 3 3 3 3 2 3 3 3
2 2 3 4 4 5 7 7 7 8 8 8 7 7 7 7 7 6 5 5 5 5 5 5 6 6 6 5 5 5 5 5 4 4 4 4 3 4 3 3 3 3 2
3 3 3 2 3 3 5 7 8 8 8 8 8 7 7 8 8 7 6 5 5 5 5 5 5 6 6 6 5 5 4 4 4 4 5 5 5 5 4 4 3 3 2
3 3 3 2 1 2 2 5 6 6 8 8 8 8 6 6 6 6 5 5 5 6 5 5 5 5 5 5 5 5 5 5 5 4 5 5 6 7 5 4 3 3 3
4 3 3 2 1 3 4 4 6 6 7 7 7 6 5 5 6 6 5 5 5 5 5 5 5 5 5 6 8 7 5 4 5 5 4 5 6 7 8 7 7 6 5
4 3 2 2 2 3 4 4 5 6 6 6 5 5 5 4 6 6 5 5 5 4 4 5 5 5 6 7 8 8 5 5 5 5 4 4 4 4 4 5 6 6 8
3 3 2 2 1 1 2 3 4 6 7 6 5 6 6 5 5 5 5 4 4 4 4 4 5 5 5 6 6 6 5 4 5 5 5 5 4 4 3 3 3 4 5
3 3 3 2 2 1 2 3 4 5 5 5 5 6 6 6 5 5 4 4 4 3 3 4 4 5 5 6 6 4 3 3 4 3 3 3 4 4 4 3 3 3 4
1 2 2 2 2 1 1 3 4 5 5 5 5 5 6 6 5 5 4 3 3 4 3 3 4 5 5 5 6 5 3 3 3 2 2 3 3 3 4 4 4 4 4
1 2 2 2 1 1 3 3 3 4 5 5 5 4 5 5 5 4 3 3 3 3 3 3 3 4 5 5 6 7 4 4 3 2 2 3 3 4 5 5 5 6 4
2 2 2 1 1 1 3 3 2 3 3 4 4 4 4 4 4 3 3 2 3 3 3 3 3 3 4 5 6 7 6 5 4 4 3 3 4 5 5 4 5 5 3
2 1 2 1 1 1 2 2 1 1 2 3 3 3 3 3 3 3 3 3 3 4 4 3 4 4 3 3 6 7 7 6 4 3 4 3 4 4 4 4 5 3 2
2 2 2 1 1 1 1 1 1 1 2 2 2 2 3 2 2 2 3 4 4 4 4 4 4 3 3 2 2 3 3 4 3 2 2 3 3 3 3 3 2 3 3
1 2 2 2 1 0 1 1 0 1 1 1 2 2 2 3 2 2 2 4 4 5 5 4 4 4 4 5 7 5 4 4 3 2 0 0 0 1 2 2 2 2 2
1 1 1 1 1 0 1 1 0 1 2 1 2 2 2 2 2 2 1 2 4 5 6 7 7 5 7 7 7 6 6 5 5 4 2 2 3 3 3 3 2 2 3
Wind_Direction
179 172 173 172 169 169 169 169 171 176 171 168 172 175 183 189 187 191 190 188 187 182 175 187 188 183 183 198 196 186 205 242 197 22 323 315 291 261 260 248 231 228 225
170 174 173 173 174 175 175 173 175 177 177 180 178 176 170 183 189 195 190 194 193 186 180 176 182 186 187 193 190 174 170 240 174 152 95 336 334 318 282 265 240 249 235
178 178 177 178 178 181 180 180 179 179 180 177 166 161 136 142 188 204 200 205 197 192 185 179 177 182 182 197 204 184 171 200 237 180 158 165 242 303 318 292 271 264 245
179 180 179 179 183 186 182 180 179 179 182 177 174 173 179 190 201 197 198 204 200 195 191 184 182 183 182 192 208 191 182 173 212 244 214 193 178 183 300 319 307 291 260
180 185 186 185 184 182 181 181 179 182 182 182 182 182 192 197 192 186 192 203 209 205 198 192 190 192 194 199 204 196 193 183 189 204 218 227 212 187 186 272 304 321 288
189 188 186 179 180 181 181 180 180 186 185 185 185 188 194 193 187 191 195 201 206 212 210 201 199 201 200 204 207 205 203 200 196 201 195 189 196 204 192 226 258 271 283
189 185 180 181 182 181 183 182 184 189 187 187 191 194 196 196 197 198 197 195 199 208 214 208 203 205 207 207 205 204 214 208 201 207 212 209 216 197 183 192 234 256 275
186 180 183 185 185 185 184 184 188 191 192 193 195 197 195 197 203 202 199 199 201 206 206 204 204 205 204 209 205 207 213 210 209 219 215 216 227 206 192 188 183 242 287
180 180 181 180 183 187 189 189 189 191 192 195 193 194 196 196 202 202 201 201 204 207 205 205 205 207 205 206 199 211 217 212 216 225 222 222 233 220 212 195 178 175 224
179 180 179 178 184 189 190 187 188 191 191 191 194 196 195 195 196 195 198 200 202 205 198 202 202 203 205 203 201 212 215 210 223 221 219 229 236 232 218 205 198 182 185
177 181 182 178 180 176 174 180 186 189 189 193 195 196 192 192 194 194 198 203 205 200 197 198 196 198 202 201 199 209 205 207 224 228 216 231 234 233 227 217 206 195 178
136 173 170 167 170 176 179 181 182 187 191 190 187 190 186 185 191 197 200 201 203 203 201 196 194 200 202 200 200 210 208 207 217 225 223 236 240 236 224 212 215 210 196
76 99 133 155 173 177 181 183 182 187 187 181 179 183 186 186 191 196 194 197 201 202 204 196 196 199 199 200 207 208 208 205 210 214 220 233 228 236 232 221 221 219 212
101 84 87 114 164 175 185 183 188 184 180 177 178 185 193 194 195 195 192 196 199 202 205 201 201 200 198 199 204 205 209 212 215 216 219 223 219 224 224 225 225 215 202
114 110 103 97 117 154 176 179 178 178 178 177 182 192 198 199 194 191 194 199 205 209 203 198 201 200 197 199 197 205 211 213 219 225 225 227 225 225 222 224 217 207 203
145 139 126 108 143 165 179 171 170 170 168 175 185 186 184 194 197 196 194 196 204 207 199 200 201 200 204 206 205 203 213 215 217 228 237 240 233 233 232 232 219 205 202
157 150 149 183 183 181 176 176 181 167 163 170 176 176 182 193 204 195 188 196 203 201 203 205 198 203 211 210 213 210 207 215 220 223 228 241 243 234 224 231 226 225 220
157 152 158 169 174 202 176 171 163 162 164 169 176 183 184 190 185 180 189 198 200 201 214 221 214 208 216 213 218 213 208 219 230 228 222 225 241 237 216 207 222 238 236
166 166 165 171 171 172 184 154 150 155 159 172 183 189 183 179 176 185 201 205 201 208 217 223 220 216 223 215 212 194 197 218 237 237 227 219 224 239 208 192 216 247 267
136 143 139 125 122 165 163 140 155 157 173 185 191 191 187 184 189 198 207 207 206 216 221 229 219 216 219 212 204 194 195 211 230 242 237 225 225 218 195 196 204 229 251
110 108 111 107 124 130 117 124 153 177 187 182 185 192 188 189 190 195 202 200 201 210 218 223 226 215 212 210 202 198 195 203 208 214 230 235 227 219 210 206 214 228 235
91 91 99 91 81 102 113 127 164 197 175 166 176 192 192 197 190 189 204 205 201 206 219 220 233 233 218 207 204 205 209 199 199 212 217 226 224 230 224 222 237 238 230
126 108 114 102 20 49 118 137 233 205 154 151 177 191 193 197 189 186 205 219 213 211 219 210 221 234 228 216 205 203 209 205 209 221 220 224 229 235 234 237 242 238 218
167 164 139 113 3 355 13 199 216 170 131 166 191 190 189 201 204 197 201 208 218 214 214 212 212 220 221 218 207 203 205 207 217 231 237 233 236 243 247 251 241 225 218
194 173 162 171 218 275 290 268 144 121 162 197 195 194 200 199 208 217 215 215 224 214 205 210 205 198 214 225 206 193 201 198 204 186 160 337 265 259 263 258 250 236 225
172 168 165 173 217 233 290 299 271 172 184 221 219 202 201 199 200 203 246 256 235 239 226 219 209 208 209 208 208 204 204 195 170 154 187 217 230 235 241 242 246 237 228